CAPE
0 39 46 23 0 0 2 0 0 0 0 0 0 0 0 1 0 0 0 0 0 0 0 7 52 0 55 0 0 0 33 33 8 0 0 0 16 79 9 1 0 1 0 0 0 0 0 0 0
0 78 9 0 1 3 7 0 0 0 0 0 0 0 0 0 8 0 0 0 0 0 0 0 48 0 0 36 10 90 38 5 0 0 0 0 0 0 1 3 13 12 6 1 0 0 0 0 0
0 1 0 0 2 5 4 0 0 0 0 0 0 0 0 0 0 0 0 0 0 0 0 1 17 27 0 0 0 0 0 0 0 0 0 0 0 0 0 0 0 6 13 5 0 0 0 0 0
0 0 0 0 0 13 0 0 0 0 0 0 0 0 0 0 0 0 0 0 0 0 0 0 2 7 0 0 0 0 0 0 0 0 0 0 0 0 0 0 0 0 0 13 7 0 0 0 0
0 0 0 0 0 4 0 0 0 0 0 0 0 0 0 0 0 0 0 0 0 0 0 0 0 0 0 0 0 0 0 0 0 0 0 0 0 0 0 0 0 0 0 0 0 1 0 0 0
0 0 0 0 0 0 0 0 0 0 0 0 0 0 0 0 0 0 0 0 0 0 0 0 0 0 0 0 0 0 0 0 0 0 0 0 0 0 0 0 0 0 0 0 0 0 0 0 0
0 0 0 0 2 0 0 0 0 0 0 0 0 0 0 0 0 0 0 0 0 0 0 0 0 0 0 0 0 6 11 0 0 0 0 0 0 0 0 0 0 0 0 0 0 0 0 0 0
0 0 0 0 0 0 0 0 0 0 0 0 0 0 0 0 0 0 0 0 0 0 0 0 0 0 0 0 0 0 2 0 0 0 0 0 0 0 0 0 0 0 0 0 0 0 0 0 0
0 0 0 0 0 0 0 0 0 0 0 0 0 0 0 0 0 0 0 0 0 0 0 0 0 0 0 0 0 0 0 0 0 0 0 0 0 0 0 0 0 0 0 0 0 0 0 0 0
0 0 0 0 0 0 0 0 0 0 0 0 0 0 0 0 4 0 0 0 0 0 0 0 0 0 0 0 0 0 0 0 0 0 0 0 0 0 0 0 0 0 0 0 0 0 0 0 0
0 0 0 0 0 0 0 0 0 0 0 0 0 0 2 18 13 0 0 0 0 0 0 0 0 0 0 0 0 0 0 0 0 0 0 0 0 0 0 0 0 0 0 0 0 0 0 0 0
0 0 0 0 0 0 0 0 0 0 0 0 0 3 17 41 32 23 0 0 0 0 0 0 0 0 0 0 0 0 0 0 0 0 0 0 0 0 0 0 0 0 0 0 0 0 0 0 0
0 0 0 0 0 0 0 0 0 0 0 0 6 51 34 35 34 34 24 0 0 0 0 0 0 0 0 0 0 0 0 0 0 0 0 0 0 0 0 0 0 0 0 0 0 0 0 0 0
0 0 0 0 0 0 0 0 0 0 0 0 0 13 54 48 23 35 24 30 9 8 0 0 0 0 0 0 0 0 0 0 0 0 0 0 0 0 0 0 0 0 0 0 0 0 0 0 0
0 0 0 0 0 0 0 0 0 0 0 0 0 0 57 74 60 50 36 43 37 46 51 40 19 26 11 0 0 0 0 0 0 0 0 0 0 0 0 0 0 0 0 0 0 0 0 0 0
0 0 0 0 0 0 0 0 0 0 0 0 0 0 40 100 96 70 52 40 29 71 72 53 22 20 0 0 0 0 0 0 0 0 0 0 0 0 0 0 0 0 0 0 0 0 0 0 0
0 0 0 0 0 0 0 0 0 0 0 0 0 0 5 50 114 103 88 71 42 32 34 48 44 46 37 9 0 0 0 0 0 0 0 0 0 0 0 0 0 0 0 0 0 0 0 1 0
0 0 0 0 0 0 0 0 0 0 0 0 0 0 0 0 40 87 44 5 2 18 16 12 3 13 11 5 0 0 0 0 0 0 0 0 0 1 2 5 3 2 6 5 0 0 0 0 0
0 0 0 0 0 0 0 0 0 0 0 0 0 0 0 0 0 0 0 0 0 0 0 0 0 0 0 10 38 39 31 2 0 0 0 0 0 0 0 0 0 0 0 0 0 0 0 0 0
0 0 0 0 0 0 0 0 0 0 0 0 0 0 0 0 0 0 0 0 0 0 0 0 0 0 0 0 0 0 0 0 0 0 0 0 0 0 0 0 0 0 0 0 0 0 0 0 0
2 0 0 0 0 0 0 0 0 0 0 0 0 0 0 0 0 0 0 0 0 0 0 0 0 0 0 0 0 0 0 0 0 0 0 0 0 0 0 0 0 0 0 0 0 0 0 0 0
1 0 0 0 0 0 0 0 0 0 0 0 0 0 0 0 0 0 0 0 0 0 0 0 0 0 0 0 0 0 0 0 0 0 0 0 0 0 0 0 0 0 0 0 0 0 0 1 0
0 0 0 0 0 0 0 0 0 0 0 0 0 0 0 0 0 0 0 0 0 0 0 0 0 0 0 0 0 0 0 0 0 0 0 0 0 0 0 0 0 0 0 0 0 0 0 0 1
1 0 0 1 0 0 0 0 0 0 0 0 0 0 0 0 0 0 0 0 0 0 0 0 0 0 0 0 0 0 0 0 0 0 0 0 0 0 0 0 0 0 0 0 0 0 0 0 0
0 0 0 0 0 0 2 0 0 0 0 0 0 0 0 0 0 0 0 0 0 0 0 0 0 0 0 0 0 0 0 0 0 0 0 0 0 0 0 0 0 0 0 0 0 0 0 0 0
0 0 0 0 0 0 0 0 0 0 0 0 0 0 0 0 0 0 0 0 0 0 0 0 0 0 0 0 0 0 0 0 0 0 0 0 0 0 0 0 0 0 0 0 0 0 0 0 0
1 0 0 0 0 0 0 0 0 0 0 0 0 0 0 0 0 0 0 0 0 0 0 0 0 0 0 0 0 0 0 0 0 0 0 0 0 0 0 0 0 0 0 0 0 0 0 0 0
0 0 0 0 0 0 0 0 0 0 0 0 0 0 0 0 0 0 0 0 0 0 0 0 0 0 0 0 0 0 0 0 0 0 0 0 0 0 0 0 0 0 0 0 0 0 0 0 0
0 0 0 0 0 0 0 0 0 0 0 0 0 0 0 0 0 0 0 0 0 0 0 0 0 0 0 0 0 0 0 0 0 0 0 0 0 0 0 0 0 0 0 0 0 0 0 0 0
0 0 0 0 0 0 0 0 0 0 0 0 0 0 0 0 0 0 0 0 0 0 0 0 0 0 0 0 0 0 0 0 0 0 0 0 0 0 0 0 0 0 0 0 0 0 0 0 0
CIN
0 -354 -295 -216 0 0 -12 0 0 0 0 0 0 0 0 -35 0 0 0 0 0 0 0 -4 -122 0 -113 0 0 0 -147 -139 -197 0 0 0 -127 -77 -21 0 0 0 0 0 0 0 0 0 0
0 -222 -207 0 -49 -15 -22 0 0 0 0 0 0 0 0 0 -205 0 0 0 0 0 0 0 -106 0 0 -124 -68 -74 -118 -168 0 0 0 0 0 0 0 0 0 0 0 0 0 0 0 0 0
0 -87 0 0 -64 -28 -28 0 0 0 0 0 0 0 0 0 0 0 0 0 0 0 0 -40 -119 -111 0 0 0 0 0 0 0 0 0 0 0 0 0 0 0 0 0 0 0 0 0 0 0
0 0 0 0 0 -37 0 0 0 0 0 0 0 0 0 0 0 0 0 0 0 0 0 0 -33 -141 0 0 0 0 0 0 0 0 0 0 0 0 0 0 0 0 0 -1 0 0 0 0 0
0 0 0 0 0 -37 0 0 0 0 0 0 0 0 0 0 0 0 0 0 0 0 0 0 0 0 0 0 0 0 0 0 0 0 0 0 0 0 0 0 0 0 0 0 0 0 0 0 0
0 0 0 0 0 0 0 0 0 0 0 0 0 0 0 0 0 0 0 0 0 0 0 0 0 0 0 0 0 0 0 0 0 0 0 0 0 0 0 0 0 0 0 0 0 0 0 0 0
0 0 0 0 -82 0 0 0 0 0 0 0 0 0 0 0 0 0 0 0 0 0 0 0 0 0 0 0 0 -1 -2 0 0 0 0 0 0 0 0 0 0 0 0 0 0 0 0 0 0
0 0 0 0 0 0 0 0 0 0 0 0 0 0 0 0 0 0 0 0 0 0 0 0 0 0 0 0 0 0 -4 0 0 0 0 0 0 0 0 0 0 0 0 0 0 0 0 0 0
0 0 0 0 0 0 0 0 0 0 0 0 0 0 0 0 0 0 0 0 0 0 0 0 0 0 0 0 0 0 0 0 0 0 0 0 0 0 0 0 0 0 0 0 0 0 0 0 0
0 0 0 0 0 0 0 0 0 0 0 0 0 0 0 0 -268 0 0 0 0 0 0 0 0 0 0 0 0 0 0 0 0 0 0 0 0 0 0 0 0 0 0 0 0 0 0 0 0
0 0 0 0 0 0 0 0 0 0 0 0 0 0 -164 -299 -262 0 0 0 0 0 0 0 0 0 0 0 0 0 0 0 0 0 0 0 0 0 0 0 0 0 0 0 0 0 0 0 0
0 0 0 0 0 0 0 0 0 0 0 0 0 -148 -342 -280 -240 -233 -9 0 0 0 0 0 0 0 0 0 0 0 0 0 0 0 0 0 0 0 0 0 0 0 0 0 0 0 0 0 0
0 0 0 0 0 0 0 0 0 0 0 0 -333 -305 -305 -285 -243 -239 -202 0 0 0 0 0 0 0 0 0 0 0 0 0 0 0 0 0 0 0 0 0 0 0 0 0 0 0 0 0 0
0 0 0 0 0 0 0 0 0 0 0 0 0 -325 -285 -286 -263 -228 -214 -195 -147 -117 0 0 0 0 0 0 0 0 0 0 0 0 0 0 0 0 0 0 0 0 0 0 0 0 0 0 0
0 0 0 0 0 0 0 0 0 0 0 0 0 -8 -285 -259 -258 -204 -210 -199 -189 -173 -181 -201 -196 -205 -208 0 0 0 0 0 0 0 0 0 0 0 0 0 0 0 0 0 0 0 0 0 0
-22 0 0 0 0 0 0 0 0 0 0 0 0 0 -287 -249 -223 -195 -209 -205 -211 -182 -178 -182 -205 -200 0 0 0 0 0 0 0 0 0 0 0 0 0 0 0 0 0 0 0 0 0 0 -2
-21 0 0 0 0 0 0 0 0 0 0 0 0 0 -91 -256 -205 -183 -182 -183 -189 -179 -174 -160 -178 -172 -170 -76 0 0 0 0 0 0 0 0 0 0 0 0 0 0 0 -21 -9 0 0 -13 -5
0 0 0 0 0 0 0 0 0 0 0 0 0 0 0 0 -211 -168 -176 -63 -119 -273 -286 -279 -65 -221 -200 -153 0 0 0 0 0 0 0 0 0 -25 -37 -45 -48 -38 -39 -32 -4 -1 0 0 0
0 0 0 0 0 0 0 0 0 0 0 0 0 0 0 0 0 0 0 0 0 0 0 0 0 0 -1 -205 -160 -154 -138 -174 0 0 0 0 0 -1 0 0 -1 -1 -89 -1 0 0 0 0 0
0 0 0 0 0 0 0 0 0 0 0 0 0 0 0 0 0 0 0 0 0 0 0 0 0 0 0 0 0 0 0 0 0 0 0 0 0 0 0 0 0 0 0 0 0 0 0 0 0
-8 0 0 0 0 0 0 0 0 0 0 0 0 0 0 0 0 0 0 0 0 0 0 0 0 0 0 0 0 0 0 0 0 0 0 0 0 0 0 0 0 0 0 0 0 0 0 0 0
-9 0 0 0 0 0 0 0 0 0 0 0 0 0 0 0 0 0 0 0 0 0 0 0 0 0 0 0 0 0 0 0 0 0 0 0 0 0 0 0 0 0 0 0 0 0 0 0 0
0 0 0 0 0 0 0 0 0 0 0 0 0 0 0 0 0 0 0 0 0 0 0 0 0 0 0 0 0 0 0 0 0 0 0 0 0 0 0 0 0 0 0 0 0 0 0 0 0
-4 0 0 0 0 0 0 0 0 0 0 0 0 0 0 0 0 0 0 0 0 0 0 0 0 0 0 0 0 0 0 0 0 0 0 0 0 0 0 0 0 0 0 0 0 0 0 0 0
0 0 0 0 0 0 0 0 0 0 0 0 0 0 0 0 0 0 0 0 0 0 0 0 0 0 0 0 0 0 0 0 0 0 0 0 0 0 0 0 0 0 0 0 0 0 0 0 0
0 0 0 0 0 0 0 0 0 0 0 0 0 0 0 0 0 0 0 0 0 0 0 0 0 0 0 0 0 0 0 0 0 0 0 0 0 0 0 0 0 0 0 0 0 0 0 0 0
0 0 0 0 0 0 0 0 0 0 0 0 0 0 0 0 0 0 0 0 0 0 0 0 0 0 0 0 0 0 0 0 0 0 0 0 0 0 0 0 0 0 0 0 0 0 0 0 0
0 0 0 0 0 0 0 0 0 0 0 0 0 0 0 0 0 0 0 0 0 0 0 0 0 0 0 0 0 0 0 0 0 0 0 0 0 0 0 0 0 0 0 0 0 0 0 0 0
0 0 0 0 0 0 0 0 0 0 0 0 0 0 0 0 0 0 0 0 0 0 0 0 0 0 0 0 0 0 0 0 0 0 0 0 0 0 0 0 0 0 0 0 0 0 0 0 0
0 0 0 0 0 0 0 0 0 0 0 0 0 0 0 0 0 0 0 0 0 0 0 0 0 0 0 0 0 0 0 0 0 0 0 0 0 0 0 0 0 0 0 0 0 0 0 0 0
Wind_Speed
12 10 13 14 16 16 16 16 17 13 14 17 18 20 20 17 19 18 10 6 16 16 17 19 20 19 14 19 19 18 14 13 10 6 5 6 12 17 19 19 18 19 19 19 19 19 15 14 15
15 15 15 15 16 16 17 18 16 15 6 5 8 11 14 18 17 17 18 9 16 17 12 14 17 18 16 16 18 16 14 11 8 7 8 9 13 16 17 17 17 17 18 19 18 18 16 15 16
16 16 16 17 17 18 17 16 17 8 5 15 13 12 15 16 17 24 8 18 15 14 11 11 14 16 17 17 16 15 14 9 8 10 10 11 13 15 16 16 16 17 17 17 18 18 17 17 17
16 17 16 18 19 20 18 17 14 11 15 16 11 11 15 18 18 24 21 22 21 18 13 13 14 13 14 15 17 16 10 8 9 11 11 12 13 14 15 16 16 16 17 15 17 17 18 18 17
16 16 20 20 21 19 20 18 15 16 14 14 17 13 13 16 6 19 21 23 23 23 21 17 14 13 11 11 11 11 11 10 10 10 11 12 13 14 14 15 16 16 16 17 18 16 18 19 19
19 18 21 22 20 19 19 15 17 16 14 14 12 10 13 8 14 20 19 20 21 22 23 24 22 17 10 7 8 9 9 10 11 11 11 12 13 14 14 14 15 16 16 16 17 18 20 22 22
21 22 24 20 19 18 16 14 18 16 14 16 8 11 14 4 13 16 14 14 15 16 18 19 20 20 17 13 8 8 9 10 11 11 11 12 13 13 13 13 14 15 15 16 18 19 21 22 23
21 22 25 22 21 19 17 16 18 16 15 13 15 13 10 20 11 8 8 10 10 13 15 15 12 9 9 9 11 12 11 10 11 11 12 12 12 12 12 12 12 13 13 14 16 18 19 21 23
21 24 26 25 20 18 17 17 16 15 12 17 19 13 14 15 12 9 7 5 6 9 13 13 14 15 14 13 11 10 10 10 10 10 10 10 12 12 12 12 13 15 17 19 20 22 22 23 24
24 26 25 24 20 21 21 21 16 16 14 17 17 13 7 15 17 18 17 17 16 19 19 18 18 17 16 13 11 10 10 9 9 11 13 14 14 14 15 13 11 15 18 20 20 20 21 24 25
26 29 26 28 26 22 22 21 21 15 19 19 15 4 10 14 16 16 17 18 19 19 19 20 19 17 15 13 11 11 10 9 8 8 7 10 15 17 18 19 17 19 18 19 20 22 22 24 25
32 31 28 28 27 24 23 20 23 19 20 21 9 8 9 14 16 16 16 15 16 17 18 18 17 16 15 13 11 10 9 9 9 8 7 7 9 13 18 21 23 24 23 24 22 23 25 27 27
36 32 30 29 29 28 25 25 23 22 19 10 4 1 6 8 11 10 15 13 13 16 18 17 16 15 14 14 12 10 9 8 7 6 6 8 9 12 15 17 20 22 22 23 25 26 27 28 29
29 30 35 31 31 28 27 24 21 22 12 7 2 2 3 7 10 8 11 11 11 14 16 17 16 14 12 12 11 10 9 7 6 7 9 12 12 14 16 19 20 21 22 25 27 28 30 31 31
33 36 33 31 30 30 25 29 25 18 11 6 6 5 4 4 5 8 10 10 12 13 14 14 12 11 9 8 8 6 5 6 4 6 9 9 13 14 16 20 22 22 23 24 26 28 29 30 32
32 34 38 29 30 30 26 35 25 16 11 11 8 8 6 6 5 4 5 6 6 9 12 9 4 4 4 3 3 4 5 8 11 13 14 14 13 14 17 20 23 24 24 25 27 29 31 32 33
34 41 38 34 27 28 28 32 26 19 16 14 12 10 10 9 11 9 6 4 2 3 2 3 1 3 4 7 9 12 14 17 18 20 21 21 21 21 21 23 25 27 27 27 29 30 30 33 35
41 41 38 40 31 30 29 33 28 23 20 17 14 14 12 11 10 14 14 12 10 7 8 10 13 14 16 17 20 21 23 25 25 27 29 30 29 27 27 28 29 29 28 28 29 30 32 34 38
42 46 45 39 32 33 34 32 31 27 28 22 19 17 15 14 16 15 14 13 12 14 14 16 17 19 18 20 23 25 27 28 28 28 30 30 30 29 29 29 29 29 29 29 30 32 35 37 34
34 46 47 39 39 37 36 34 30 28 29 28 22 20 20 16 15 14 13 12 12 12 13 15 17 19 20 22 24 25 27 26 26 27 28 29 29 29 29 29 30 30 31 32 32 32 34 33 32
32 37 39 41 32 35 37 41 34 28 26 27 25 21 20 16 13 12 11 11 11 12 14 15 17 19 22 24 24 26 26 26 26 28 29 29 29 29 29 29 30 30 30 32 32 32 33 35 33
36 29 29 33 34 44 36 52 46 33 31 25 21 17 15 13 13 11 10 11 13 14 15 16 19 21 23 24 24 25 25 26 26 26 26 28 28 28 29 29 30 30 31 32 32 32 33 33 35
30 22 24 26 28 28 35 44 42 37 36 27 22 16 14 12 11 11 11 13 15 16 15 18 19 20 22 22 22 22 23 24 23 25 26 28 28 29 30 30 31 31 32 32 33 34 34 33 34
17 20 21 24 26 38 33 35 38 38 37 29 25 19 16 13 11 13 14 13 14 17 16 16 17 19 20 21 22 23 23 24 25 27 28 29 29 30 31 31 32 32 33 33 33 33 34 34 34
15 22 29 32 33 36 26 33 33 35 31 29 24 17 17 12 12 14 15 14 13 12 13 15 17 19 20 21 22 23 24 25 26 28 29 31 31 32 33 33 33 33 34 34 34 35 35 35 36
22 21 27 34 34 30 23 31 30 26 29 23 19 18 14 9 8 9 11 12 11 13 13 14 16 18 20 21 23 24 25 26 27 28 28 29 30 32 32 33 34 34 35 35 35 36 37 37 37
26 30 19 19 22 24 24 24 22 21 25 21 23 23 22 18 13 10 10 9 11 11 14 15 16 19 21 22 23 25 26 27 27 28 29 30 31 31 33 34 35 36 37 37 37 38 39 38 38
25 21 25 22 27 30 26 25 23 19 19 20 19 21 15 11 9 7 9 9 10 13 13 15 18 19 21 22 23 25 26 27 28 28 30 31 32 33 35 36 37 38 39 40 40 41 40 40 40
26 26 22 19 22 26 25 26 19 17 17 15 14 13 10 9 8 7 8 10 11 13 15 16 18 20 22 23 24 26 27 27 28 29 31 33 34 36 37 38 39 40 41 41 41 41 40 42 42
27 31 28 28 26 21 21 21 19 21 18 13 10 10 9 7 7 8 10 10 12 14 16 17 19 21 22 23 25 26 27 28 29 31 33 34 37 37 39 40 41 41 41 42 42 42 42 43 45
Wind_Direction
269 264 260 262 257 260 256 249 240 250 246 226 213 201 150 207 169 187 240 22 91 95 94 99 96 90 69 88 84 85 67 53 31 352 294 324 18 44 64 46 34 32 27 26 25 20 353 339 341
257 258 261 259 257 255 258 250 247 247 282 313 266 257 238 218 209 171 111 65 97 97 84 89 94 92 82 77 85 77 69 48 3 289 282 325 16 48 46 32 24 31 40 35 28 13 349 334 336
263 264 258 254 257 253 260 258 239 266 276 250 259 261 241 232 214 118 165 99 93 92 83 84 91 88 87 85 82 78 65 25 308 274 293 338 20 35 44 40 21 20 47 39 34 25 358 340 322
266 263 263 251 250 255 252 262 247 258 254 251 270 296 247 218 103 157 107 108 105 101 90 92 93 86 82 83 87 81 45 351 298 292 319 358 26 36 43 35 26 23 14 52 26 10 346 331 296
268 263 249 248 252 257 258 263 248 249 264 263 243 271 270 230 325 102 110 113 115 116 112 102 97 90 76 72 65 59 50 16 347 347 8 18 28 40 40 31 22 17 15 7 347 11 345 313 293
252 257 246 244 250 264 265 255 243 255 265 259 274 287 269 275 87 110 108 112 113 114 121 127 123 108 76 44 47 44 37 15 6 7 9 10 17 31 30 28 21 10 12 9 353 344 328 311 303
250 247 243 247 250 262 262 253 247 259 269 255 299 297 274 311 98 106 100 96 100 102 109 115 118 121 112 91 45 36 35 27 12 11 15 19 26 34 41 38 29 20 18 5 350 340 326 322 324
255 250 242 247 249 265 261 256 253 257 264 263 253 292 309 138 107 96 87 87 86 96 103 106 92 81 77 76 89 93 77 52 41 47 54 60 62 57 48 44 32 25 25 14 6 353 347 341 335
255 246 242 242 252 266 268 255 257 263 273 251 244 279 273 118 113 105 93 65 72 85 104 104 105 108 108 98 87 77 83 72 52 48 50 35 14 18 21 21 13 360 352 342 337 334 335 336 335
248 244 244 246 256 265 270 254 255 264 264 263 255 275 68 114 123 123 120 117 117 124 124 122 121 118 112 97 91 78 77 58 27 3 346 346 353 360 358 5 14 356 346 337 341 342 341 336 335
246 243 247 248 256 270 267 255 252 263 260 261 267 33 101 119 125 124 123 124 128 127 126 131 128 123 118 109 98 99 94 91 87 83 63 16 347 339 337 337 345 341 343 342 340 337 338 336 334
244 244 251 252 255 264 267 261 251 256 265 254 281 102 113 124 130 130 128 121 120 124 127 128 128 124 125 111 100 98 94 104 114 112 98 61 26 358 338 331 324 325 331 329 334 334 332 331 332
240 246 253 254 254 258 265 256 253 252 271 280 277 141 122 128 129 125 128 119 119 128 134 133 129 128 127 128 120 105 98 88 98 71 53 28 14 2 351 345 337 334 333 333 331 330 330 329 329
243 248 249 252 252 256 259 258 255 257 274 268 251 209 163 138 134 129 130 126 124 128 134 141 139 133 122 127 126 129 123 104 67 33 15 358 354 348 344 340 338 335 334 330 327 327 326 326 327
243 244 250 250 251 251 258 250 251 262 257 247 254 247 237 166 160 145 136 131 133 133 135 137 136 132 128 123 122 104 93 38 39 15 360 355 348 344 341 336 334 333 332 330 328 327 327 326 326
244 243 243 250 249 250 254 246 254 258 246 248 249 254 247 239 216 213 149 138 132 133 141 131 92 94 99 78 65 27 12 354 348 343 341 340 338 335 334 331 328 329 329 327 326 325 324 324 324
240 238 239 245 252 250 249 249 251 252 249 249 250 254 253 250 257 256 255 262 258 141 119 126 27 354 350 338 338 335 333 330 330 328 328 329 329 328 327 326 326 326 325 325 325 325 326 324 324
236 237 240 240 248 250 250 250 251 249 248 251 254 255 254 251 252 262 268 278 290 301 309 312 310 312 312 315 316 318 318 319 321 320 320 320 321 323 323 323 323 324 325 325 325 325 326 325 323
241 238 238 243 250 250 250 252 251 251 249 254 256 255 254 255 268 272 277 281 289 296 299 302 305 308 313 313 312 314 314 315 318 322 322 323 323 325 327 327 328 329 329 329 328 326 324 324 328
239 237 236 245 248 248 250 250 253 255 252 253 255 254 252 257 267 273 277 286 291 300 307 310 311 314 316 316 316 317 318 321 325 327 328 329 329 329 330 329 329 330 329 329 329 329 326 326 330
241 237 234 241 254 251 246 245 249 255 258 256 257 256 251 250 256 268 276 287 297 304 312 314 316 318 319 319 319 319 321 322 324 326 328 331 332 333 334 334 333 333 333 331 331 331 329 326 329
239 243 239 244 247 242 242 243 245 252 252 251 250 244 242 247 261 272 283 293 298 306 311 317 317 318 320 322 324 324 323 323 327 330 334 335 338 338 337 336 336 335 335 334 333 334 331 329 327
247 238 242 248 249 251 244 245 250 246 247 245 246 244 242 249 263 275 287 297 303 309 316 320 324 328 329 333 335 335 332 333 337 337 337 337 338 340 339 338 337 336 336 335 334 332 331 330 328
238 235 245 252 253 247 247 246 252 241 241 245 252 244 248 249 266 283 291 300 307 314 319 326 332 336 337 340 340 340 338 337 337 336 336 336 337 338 339 338 337 336 335 334 333 332 330 329 328
233 226 239 243 245 251 250 248 253 248 247 247 239 252 250 254 268 277 293 301 305 314 328 330 334 337 341 342 342 343 340 339 338 336 335 334 335 335 335 337 337 336 335 335 334 332 330 329 328
222 237 241 243 243 249 255 253 258 255 250 250 250 244 255 250 275 286 292 300 308 314 326 336 339 339 340 343 343 344 343 341 341 339 339 338 337 337 338 338 338 337 336 335 334 333 331 330 329
236 239 256 253 256 253 255 261 263 259 249 250 248 245 252 268 275 278 276 296 309 328 321 332 340 341 342 341 342 343 343 342 342 341 341 340 340 339 338 338 336 335 334 334 333 331 330 329 328
237 238 241 253 247 250 257 258 261 255 243 242 240 246 249 252 254 267 270 293 315 320 336 339 341 341 342 344 345 345 344 344 343 343 341 341 340 338 337 336 335 334 333 332 330 329 328 327 327
231 235 246 251 256 253 253 259 269 259 248 242 243 243 241 241 246 260 286 303 317 330 335 338 341 342 343 344 344 343 343 343 343 341 340 339 338 337 335 334 333 332 330 330 329 329 329 327 326
245 240 243 246 252 265 267 268 273 265 260 255 250 245 245 240 252 276 293 306 317 325 332 337 340 342 342 342 341 342 342 341 339 338 337 337 335 335 333 331 331 331 331 330 330 329 329 327 325